Tracking 29892 objects as of 21-Nov-2024
HD Live streaming from Space Station
objects crossing your sky now

SL-14 R/B

Track SL-14 R/B now!
10-day predictions
SL-14 R/B is classified as:


NORAD ID: 21820
Int'l Code: 1991-086B
Perigee: 442.4 km
Apogee: 2,972.2 km
Inclination: 82.6 °
Period: 120.4 minutes
Semi major axis: 8078 km
RCS: 5.3273 m2 (large)
Launch date: December 18, 1991
Source: Commonwealth of Independent States (former USSR) (CIS)
Launch site: PLESETSK MISSILE AND SPACE COMPLEX (PKMTR)

Note: This is a ROCKET BODY
Your satellite tracking list
Your tracking list is empty




NASA's NSSDC Master Catalog

Two Line Element Set (TLE):
1 21820U 91086B   24325.91995196  .00002025  00000-0  40186-3 0  9993
2 21820  82.5582 316.3330 1565777   1.2094 359.2117 11.95696751430609
Source of the keplerian elements: AFSPC